This demonstration page uses our WeatherBlox Daily Observations layout. Learn more.

Left ArrowRight Arrow

39.08367, -84.50855

Hourly Observations for September 5, 2017

Temp ( °F °C ) Dew Point ( °F °C ) Humidity (%) Winds ( mph kmh ) Pressure ( in mb ) Visibility ( mi km ) Precip ( " mm )
12:53 am 00:53 Mostly Cloudy 76 24.4 67 19.4 74 74 SSW 13 20 29.76 1008 10 16 N/A
1:19 am 01:19 Partly Cloudy with Nearby Thunderstorms 76 24.4 67 19.4 74 74 SSW 16 26 29.77 1008 10 16 N/A
1:34 am 01:34 Mostly Cloudy 77 25 67 19.4 71 71 SSW 16 26 29.77 1008 10 16 N/A
1:53 am 01:53 Mostly Cloudy 76 24.4 67 19.4 74 74 SSW 14 22 29.75 1008 10 16 N/A
2:00 am 02:00 Mostly Cloudy with Nearby Thunderstorms 76 24.4 67 19.4 74 74 SW 14 22 29.77 1008 10 16 N/A
2:07 am 02:07 Mostly Cloudy with Thunderstorms 76 24.4 67 19.4 74 74 SW 14 22 29.77 1008 10 16 N/A
2:23 am 02:23 Mostly Cloudy with Nearby Thunderstorms 76 24.4 68 20 77 77 SW 17 28 29.77 1008 10 16 N/A
2:53 am 02:53 Partly Cloudy with Nearby Thunderstorms 75 23.9 68 20 79 79 SW 10 17 29.75 1007 10 16 N/A
3:05 am 03:05 Mostly Cloudy 75 23.9 68 20 79 79 SW 14 22 29.77 1008 10 16 N/A
3:12 am 03:12 Mostly Cloudy with Nearby Thunderstorms 75 23.9 68 20 79 79 SSW 13 20 29.77 1008 10 16 N/A
3:21 am 03:21 Mostly Cloudy with Nearby Thunderstorms 75 23.9 68 20 79 79 SW 14 22 29.77 1008 10 16 N/A
3:29 am 03:29 Cloudy 75 23.9 68 20 79 79 SSW 13 20 29.77 1008 10 16 N/A
3:41 am 03:41 Cloudy with Nearby Thunderstorms 74 23.3 68 20 82 82 SSW 9 15 29.77 1008 10 16 N/A
3:53 am 03:53 Cloudy with Nearby Thunderstorms 73 22.8 69 20.6 87 87 WSW 8 13 29.75 1008 6 10 0.01 0.25
4:02 am 04:02 Mostly Cloudy 73 22.8 69 20.6 87 87 SW 8 13 29.77 1008 10 16 N/A
4:53 am 04:53 Cloudy 73 22.8 70 21.1 90 90 N N/A 29.75 1008 8 13 N/A
5:53 am 05:53 Cloudy 72 22.2 68 20 87 87 NW 10 17 29.78 1009 9 14 N/A
6:53 am 06:53 Mostly Cloudy 69 20.6 67 19.4 93 93 NNW 5 7 29.80 1009 8 13 N/A
7:53 am 07:53 Mostly Cloudy 69 20.6 64 17.8 84 84 NW 5 7 29.83 1010 8 13 N/A
8:53 am 08:53 Sunny 68 20 63 17.2 84 84 WNW 7 11 29.84 1011 9 14 N/A
9:53 am 09:53 Sunny 69 20.6 62 16.7 78 78 NW 6 9 29.85 1011 10 16 N/A
10:53 am 10:53 Sunny 71 21.7 61 16.1 71 71 W 6 9 29.86 1011 10 16 N/A
11:53 am 11:53 Mostly Sunny 72 22.2 62 16.7 71 71 W 12 19 29.86 1011 10 16 N/A
12:53 pm 12:53 Partly Cloudy 72 22.2 62 16.7 71 71 WNW 14 22 29.87 1011 10 16 N/A
1:53 pm 13:53 Sunny 73 22.8 55 12.8 53 53 W 14 22 29.86 1011 8 13 N/A
2:53 pm 14:53 Mostly Sunny 75 23.9 54 12.2 48 48 W 12 19 29.85 1011 10 16 N/A
3:53 pm 15:53 Partly Cloudy 75 23.9 54 12.2 48 48 NW 10 17 29.84 1011 10 16 N/A
4:53 pm 16:53 Partly Cloudy 72 22.2 50 10 46 46 W 13 20 29.85 1011 10 16 N/A
5:53 pm 17:53 Mostly Sunny 73 22.8 49 9.4 43 43 WNW 13 20 29.84 1011 10 16 N/A
6:53 pm 18:53 Mostly Sunny 71 21.7 47 8.3 42 42 WNW 9 15 29.86 1011 10 16 N/A
7:53 pm 19:53 Mostly Sunny 68 20 47 8.3 47 47 NW 6 9 29.90 1012 10 16 N/A
8:53 pm 20:53 Clear 65 18.3 48 8.9 54 54 NW 5 7 29.91 1013 10 16 N/A
9:53 pm 21:53 Clear 64 17.8 49 9.4 58 58 NNW 5 7 29.92 1013 10 16 N/A
10:53 pm 22:53 Clear 63 17.2 48 8.9 58 58 WNW 5 7 29.92 1013 10 16 N/A
11:53 pm 23:53 Clear 60 15.6 49 9.4 67 67 N N/A 29.93 1014 10 16 N/A

Powered by AerisWeather